Watsonville, CA

1:50 PM PDT on October 15, 2019 (GMT -0700)
Watsonville Municipal

Weather History for KWVI - August, 2019

Change the Weather History Date:

Monday, August 12, 2019

  Actual Average Record
Temperature  
Mean Temperature 70 °F 64 °F  
Max Temperature 86 °F 74 °F 86 °F (2019)
Min Temperature 54 °F 53 °F 48 °F (2018)
Degree Days  
Heating Degree Days 0    
Month to date heating degree days 6  
Since 1 June heating degree days 144  
Since 1 July heating degree days 53  
Cooling Degree Days 5    
Month to date cooling degree days 17  
Year to date cooling degree days 71  
Since 1 June cooling degree days 71  
Growing Degree Days 20 (Base 50)    
Moisture  
Dew Point 54 °F    
Average Humidity 60    
Maximum Humidity 86    
Minimum Humidity 34    
Precipitation  
Precipitation 0.00 in - 0.23 in (1965)
Month to date precipitation T  
Year to date precipitation 22.76  
Sea Level Pressure  
Sea Level Pressure 29.99 in    
Wind  
Wind Speed 4 mph (South)    
Max Wind Speed 12 mph    
Max Gust Speed 14 mph    
Visibility 10 miles    
Events      
T = Trace of Precipitation, MM = Missing Value Source: NWS Daily Summary

Daily Weather History Graph

Daily Weather History Graph

Search for Another Location

Airport or City:

Astronomy

Aug. 12, 2019 Rise Set
Actual Time 6:21 AM PDT 8:02 PM PDT
Civil Twilight 5:53 AM PDT 8:30 PM PDT
Nautical Twilight 5:20 AM PDT 9:03 PM PDT
Astronomical Twilight 4:44 AM PDT 9:39 PM PDT
Moon 6:33 PM PDT (8/12) 3:38 AM PDT (8/12)
Length of Visible Light 14h 36m
Length of Day
13h 40m
Waxing Gibbous, 93% of the Moon is Illuminated
Aug 12
Waxing Gibbous
Aug 15
Full
Aug 23
Last Quarter
Aug 30
New
Sep 5
First Quarter

Hourly Weather History & Observations

Time (PDT) Temp. Heat Index Dew Point Humidity Pressure Visibility Wind Dir Wind Speed Gust Speed Precip Events Conditions
12:53 AM 60.1 °F - 54.0 °F 80% 30.01 in 10.0 mi North 3.5 mph - N/A   Clear
1:53 AM 59.0 °F - 54.0 °F 83% 30.00 in 10.0 mi NNW 3.5 mph - N/A   Clear
2:53 AM 59.0 °F - 54.0 °F 83% 29.99 in 10.0 mi NNW 3.5 mph - N/A   Clear
3:53 AM 55.0 °F - 52.0 °F 89% 29.99 in 10.0 mi Calm Calm - N/A   Clear
4:53 AM 55.0 °F - 52.0 °F 89% 30.00 in 10.0 mi Calm Calm - N/A   Clear
5:53 AM 55.0 °F - 51.1 °F 86% 30.00 in 10.0 mi Calm Calm - N/A   Clear
6:53 AM 55.0 °F - 52.0 °F 89% 30.02 in 10.0 mi Calm Calm - N/A   Clear
7:53 AM 61.0 °F - 54.0 °F 78% 30.02 in 10.0 mi Calm Calm - N/A   Clear
8:53 AM 66.0 °F - 55.0 °F 68% 30.02 in 10.0 mi Calm Calm - N/A   Clear
9:53 AM 71.1 °F - 54.0 °F 55% 30.02 in 10.0 mi Variable 3.5 mph - N/A   Clear
10:53 AM 75.9 °F - 57.0 °F 52% 30.02 in 10.0 mi Variable 3.5 mph - N/A   Clear
11:53 AM 82.0 °F 81.6 °F 55.9 °F 41% 30.01 in 10.0 mi Variable 4.6 mph - N/A   Clear
12:53 PM 84.0 °F 82.6 °F 54.0 °F 35% 29.99 in 10.0 mi SW 8.1 mph - N/A   Clear
1:53 PM 84.0 °F 82.5 °F 53.1 °F 34% 29.98 in 10.0 mi SSW 10.4 mph - N/A   Clear
2:53 PM 82.0 °F 81.2 °F 53.1 °F 37% 29.98 in 10.0 mi South 10.4 mph - N/A   Clear
3:53 PM 81.0 °F 80.4 °F 53.1 °F 38% 29.96 in 10.0 mi South 5.8 mph - N/A   Clear
4:53 PM 73.9 °F - 55.9 °F 53% 29.95 in 10.0 mi South 10.4 mph - N/A   Clear
5:53 PM 68.0 °F - 55.9 °F 65% 29.95 in 10.0 mi South 8.1 mph - N/A   Clear
6:53 PM 68.0 °F - 55.9 °F 65% 29.94 in 10.0 mi SSE 4.6 mph - N/A   Clear
7:53 PM 64.9 °F - 55.9 °F 73% 29.95 in 10.0 mi SE 8.1 mph - N/A   Clear
8:53 PM 64.0 °F - 55.0 °F 73% 29.96 in 10.0 mi SSE 5.8 mph - N/A   Clear
9:53 PM 63.0 °F - 55.0 °F 75% 29.99 in 10.0 mi SSE 4.6 mph - N/A   Clear
10:53 PM 63.0 °F - 55.9 °F 78% 29.99 in 10.0 mi Calm Calm - N/A   Clear
11:53 PM 62.1 °F - 55.0 °F 78% 29.99 in 10.0 mi ESE 3.5 mph - N/A   Clear